RESULTADOS DE LA FECHA: Domingo 29 de Septiembre, 2019 C2 | Ver Clase 2 | Ver Clase 3
FINAL C2
Puesto Nro Piloto Marca Vtas Tiempo Dif.
1 7 Maximiliano BESTANI NISSAN MARCH 16 31:31.289
2 5 Gaston GRASSO TOYOTA ETIOS 16 31:31.640 0.351
3 21 Gabriel SCORDIA FIESTA KINETIC 16 31:32.938 1.649
4 25 Sebastian PEREZ CHEVROLET ONIX 16 31:36.399 5.110
5 69 Agustin HERRERA RENAULT CLIO 16 31:36.679 5.390
6 13 Joel BORGOBELLO VW TREND 16 31:37.246 5.957
7 66 Martin ALESSI RENAULT CLIO 16 31:37.488 6.199
8 14 Ever FRANETOVICH FIAT PALIO 16 31:38.399 7.110
9 47 Ignacio PROCACITTO VW TREND 16 31:38.616 7.327
10 32 Sergio FERNANDEZ NISSAN MARCH 16 31:38.996 7.707
11 36 Alejo BORGIANI VW TREND 16 31:40.326 9.037
12 35 Diego LEANEZ TOYOTA ETIOS 16 31:40.639 9.350
13 63 Renzo TESTA FIAT PALIO 16 31:41.295 10.006
14 11 Gaston IANSA FIESTA KINETIC 16 31:43.564 12.275
15 18 Marcos FERNANDEZ NISSAN MARCH 16 31:46.529 15.240
16 73 Lucas BAGNERA TOYOTA ETIOS 16 31:48.054 16.765
17 31 Facundo LEANEZ TOYOTA ETIOS 16 31:48.375 17.086
18 78 Alejandro WEIMANN TOYOTA ETIOS 16 31:48.818 17.529
19 141 Juan Pablo ROTONDO FIESTA KINETIC 16 31:53.734 22.445
20 24 Juan I. CANELA FIESTA KINETIC 16 32:17.117 45.828
21 52 Gustavo ACUNA VW TREND 16 32:20.659 49.370
22 54 Facundo ROTONDO FIESTA KINETIC 16 32:37.876 1:06.587
23 65 Fernando GOMEZ FREDES NISSAN MARCH 16 32:47.942 1:16.653
24 120 Geronimo NUNEZ NISSAN MARCH 15 29:51.807 1 Vuelta
25 150 Damian MARKEL TOYOTA ETIOS 13 26:27.363 3 Vueltas
26 6 Miguel CIAURRO VW TREND 12 25:15.656 4 Vueltas
1 Nicolas POSCO FIESTA KINETIC 4 6:47.878 12 Vueltas
39 Alejandro VALDERREY FIAT PALIO 3 5:54.364 13 Vueltas

Auto Nro. 78 recargado con puestos por maniobra peligrosa al Auto Nro. 31.

Descargas
Título Archivo Descarga
201-143-final-clase-2.xls
SERIES
PRIMERA SERIE C2
Puesto Nro Piloto Marca Vtas Tiempo Dif.
1 7 Maximiliano BESTANI NISSAN MARCH 6 10:09.127
2 25 Sebastian PEREZ CHEVROLET ONIX 6 10:09.619 0.492
3 1 Nicolas POSCO FIESTA KINETIC 6 10:11.522 2.395
4 14 Ever FRANETOVICH FIAT PALIO 6 10:12.782 3.655
5 69 Agustin HERRERA RENAULT CLIO 6 10:13.725 4.598
6 13 Joel BORGOBELLO VW TREND 6 10:14.538 5.411
7 35 Diego LEANEZ TOYOTA ETIOS 6 10:14.877 5.750
8 65 Fernando GOMEZ FREDES NISSAN MARCH 6 10:15.882 6.755
9 36 Alejo BORGIANI VW TREND 6 10:17.670 8.543
10 11 Gaston IANSA FIESTA KINETIC 6 10:19.459 10.332
11 54 Facundo ROTONDO FIESTA KINETIC 6 10:23.754 14.627
12 6 Miguel CIAURRO TOYOTA ETIOS 5 8:31.227 1 Vuelta
39 Alejandro VALDERREY FIAT PALIO 1 3:19.458 5 Vueltas
31 Facundo LEANEZ TOYOTA ETIOS

Auto Nro. 65 Recargado con 5 seg. por falsa largada.

Descargas
SEGUNDA SERIE C2
Puesto Nro Piloto Marca Vtas Tiempo Dif.
1 5 Gaston GRASSO TOYOTA ETIOS 6 10:07.489
2 21 Gabriel SCORDIA FIESTA KINETIC 6 10:09.356 1.867
3 150 Damian MARKEL TOYOTA ETIOS 6 10:10.022 2.533
4 66 Martin ALESSI RENAULT CLIO 6 10:12.882 5.393
5 120 Geronimo NUNEZ NISSAN MARCH 6 10:15.765 8.276
6 47 Ignacio PROCACITTO VW TREND 6 10:15.940 8.451
7 73 Lucas BAGNERA TOYOTA ETIOS 6 10:17.070 9.581
8 63 Renzo TESTA FIAT PALIO 6 10:18.378 10.889
9 32 Sergio FERNANDEZ NISSAN MARCH 6 10:18.813 11.324
10 141 Juan Pablo ROTONDO FIESTA KINETIC 6 10:21.735 14.246
11 78 Alejandro WEIMANN TOYOTA ETIOS 6 10:22.314 14.825
12 24 Juan I. CANELA FIESTA KINETIC 6 10:24.823 17.334
13 18 Marcos FERNANDEZ NISSAN MARCH 6 10:25.672 18.183
14 52 Gustavo ACUNA VW TREND 6 10:52.109 44.620

Auto Nro. 18 recargado con un puesto por maniobra peligrosa al Auto Nro. 24

Descargas
Título Archivo Descarga
201-396-2-serie-clase-2.xls
TERCERA SERIE C2
Puesto Nro Piloto Marca Vtas Tiempo Dif.
Descargas
CLASIFICACIONES
1° CLASIFICACIÓN C2
Puesto Nro Piloto Marca Vtas Tiempo Dif.
1 7 Maximiliano BESTANI NISSAN MARCH 4 1:39.252
2 5 Gaston GRASSO TOYOTA ETIOS 3 1:39.269 0.017
3 25 Sebastian PEREZ CHEVROLET ONIX 1 1:39.412 0.160
4 21 Gabriel SCORDIA FIESTA KINETIC 3 1:39.519 0.267
5 1 Nicolas POSCO FIESTA KINETIC 3 1:39.524 0.272
6 47 Ignacio PROCACITTO VW TREND 2 1:39.526 0.274
7 65 Fernando GOMEZ FREDES NISSAN MARCH 4 1:39.561 0.309
8 150 Damian MARKEL TOYOTA ETIOS 3 1:39.749 0.497
9 14 Ever FRANETOVICH FIAT PALIO 3 1:39.762 0.510
10 66 Martin ALESSI RENAULT CLIO 2 1:39.946 0.694
11 39 Alejandro VALDERREY FIAT PALIO 3 1:39.965 0.713
12 120 Geronimo NUNEZ NISSAN MARCH 3 1:39.971 0.719
13 31 Facundo LEANEZ TOYOTA ETIOS 3 1:40.015 0.763
14 73 Lucas BAGNERA TOYOTA ETIOS 5 1:40.070 0.818
15 13 Joel BORGOBELLO VW TREND 3 1:40.163 0.911
16 141 Juan Pablo ROTONDO FIESTA KINETIC 4 1:40.258 1.006
17 69 Agustin HERRERA RENAULT CLIO 2 1:40.274 1.022
18 24 Juan I. CANELA FIESTA KINETIC 5 1:40.276 1.024
19 6 Miguel CIAURRO TOYOTA ETIOS 3 1:40.347 1.095
20 18 Marcos FERNANDEZ NISSAN MARCH 3 1:40.407 1.155
21 36 Alejo BORGIANI VW TREND 4 1:40.452 1.200
22 63 Renzo TESTA FIAT PALIO 3 1:40.468 1.216
23 78 Alejandro WEIMANN TOYOTA ETIOS 3 1:40.699 1.447
24 11 Gaston IANSA FIESTA KINETIC 3 1:40.749 1.497
25 32 Sergio FERNANDEZ NISSAN MARCH 4 1:40.815 1.563
26 35 Diego LEANEZ TOYOTA ETIOS 5 1:41.087 1.835
27 54 Facundo ROTONDO FIESTA KINETIC 5 1:42.065 2.813
28 52 Gustavo ACUNA VW TREND 3 1:47.289 8.037
Descargas
Título Archivo Descarga
201-453-1-clasifica-clase-2.xls
2° CLASIFICACIÓN C2
Puesto Nro Piloto Marca Vtas Tiempo Dif.
1 150 Damian MARKEL TOYOTA ETIOS 3 1:39.746
2 39 Alejandro VALDERREY FIAT PALIO 1 1:40.455 0.709
3 73 Lucas BAGNERA TOYOTA ETIOS 3 1:40.468 0.722
4 6 Miguel CIAURRO TOYOTA ETIOS 4 1:40.476 0.730
5 120 Geronimo NUNEZ NISSAN MARCH 2 1:40.487 0.741
6 35 Diego LEANEZ TOYOTA ETIOS 4 1:40.549 0.803
7 25 Sebastian PEREZ CHEVROLET ONIX 2 1:40.689 0.943
8 18 Marcos FERNANDEZ NISSAN MARCH 1 1:40.759 1.013
9 47 Ignacio PROCACITTO VW TREND 3 1:40.792 1.046
10 69 Agustin HERRERA RENAULT CLIO 1 1:40.897 1.151
11 32 Sergio FERNANDEZ NISSAN MARCH 3 1:40.911 1.165
12 66 Martin ALESSI RENAULT CLIO 3 1:40.919 1.173
13 13 Joel BORGOBELLO VW TREND 1 1:41.048 1.302
14 24 Juan I. CANELA FIESTA KINETIC 4 1:41.060 1.314
15 11 Gaston IANSA FIESTA KINETIC 2 1:41.252 1.506
16 78 Alejandro WEIMANN TOYOTA ETIOS 3 1:41.256 1.510
17 63 Renzo TESTA FIAT PALIO 3 1:41.414 1.668
18 65 Fernando GOMEZ FREDES NISSAN MARCH 1 1:42.327 2.581
19 54 Facundo ROTONDO FIESTA KINETIC 4 1:42.607 2.861
20 52 Gustavo ACUNA VW TREND 4 1:47.307 7.561
21 141 Juan Pablo ROTONDO FIESTA KINETIC 1 2:33.736 53.990

Sin tiempos Autos Nro. 1, 5, 7, 14, 21, 31 y 36

Descargas
Título Archivo Descarga
201-122-2-clasifica-clase-2.xls
GENERAL CLASIFICACIÓN C2
Puesto Nro Piloto Marca Vtas Tiempo Dif.
1 7 Maximiliano BESTANI NISSAN MARCH 1:39.252
2 5 Gaston GRASSO TOYOTA ETIOS 1:39.269 0.017
3 25 Sebastian PEREZ CHEVROLET ONIX 1:39.412 0.160
4 21 Gabriel SCORDIA FIESTA KINETIC 1:39.519 0.267
5 1 Nicolas POSCO FIESTA KINETIC 1:39.524 0.272
6 47 Ignacio PROCACITTO VW TREND 1:39.526 0.274
7 65 Fernando GOMEZ FREDES NISSAN MARCH 1:39.561 0.309
8 150 Damian MARKEL TOYOTA ETIOS 1:39.746 0.494
9 14 Ever FRANETOVICH FIAT PALIO 1:39.762 0.510
10 66 Martin ALESSI RENAULT CLIO 1:39.946 0.694
11 39 Alejandro VALDERREY FIAT PALIO 1:39.965 0.713
12 120 Geronimo NUNEZ NISSAN MARCH 1:39.971 0.719
13 31 Facundo LEANEZ TOYOTA ETIOS 1:40.015 0.763
14 73 Lucas BAGNERA TOYOTA ETIOS 1:40.070 0.818
15 13 Joel BORGOBELLO VW TREND 1:40.163 0.911
16 141 Juan Pablo ROTONDO FIESTA KINETIC 1:40.258 1.006
17 69 Agustin HERRERA RENAULT CLIO 1:40.274 1.022
18 24 Juan I. CANELA FIESTA KINETIC 1:40.276 1.024
19 6 Miguel CIAURRO TOYOTA ETIOS 1:40.347 1.095
20 18 Marcos FERNANDEZ NISSAN MARCH 1:40.407 1.155
21 36 Alejo BORGIANI VW TREND 1:40.452 1.200
22 63 Renzo TESTA FIAT PALIO 1:40.468 1.216
23 35 Diego LEANEZ TOYOTA ETIOS 1:40.549 1.297
24 78 Alejandro WEIMANN TOYOTA ETIOS 1:40.699 1.447
25 11 Gaston IANSA FIESTA KINETIC 1:40.749 1.497
26 32 Sergio FERNANDEZ NISSAN MARCH 1:40.815 1.563
27 54 Facundo ROTONDO FIESTA KINETIC 1:42.065 2.813
28 52 Gustavo ACUNA VW TREND 1:47.289 8.037
Descargas
ENTRENAMIENTOS
1° ENTRENAMIENTO C2
Puesto Nro Piloto Marca Vtas Tiempo Dif.
1 150 Damian MARKEL TOYOTA ETIOS 11 1:39.646
2 65 Fernando GOMEZ FREDES NISSAN MARCH 11 1:39.724 0.078
3 1 Nicolas POSCO FIESTA KINETIC 10 1:39.920 0.274
4 5 Gaston GRASSO TOYOTA ETIOS 13 1:39.969 0.323
5 7 Maximiliano BESTANI NISSAN MARCH 12 1:40.005 0.359
6 25 Sebastian PEREZ CHEVROLET ONIX 10 1:40.299 0.653
7 14 Ever FRANETOVICH FIAT PALIO 11 1:40.613 0.967
8 66 Martin ALESSI RENAULT CLIO 11 1:40.713 1.067
9 39 Alejandro VALDERREY FIAT PALIO 10 1:40.746 1.100
10 69 Agustin HERRERA RENAULT CLIO 12 1:40.832 1.186
11 32 Sergio FERNANDEZ NISSAN MARCH 11 1:40.857 1.211
12 21 Gabriel SCORDIA FIESTA KINETIC 8 1:40.880 1.234
13 6 Miguel CIAURRO TOYOTA ETIOS 14 1:40.899 1.253
14 18 Marcos FERNANDEZ NISSAN MARCH 13 1:40.904 1.258
15 47 Ignacio PROCACITTO VW TREND 10 1:40.908 1.262
16 120 Geronimo NUNEZ NISSAN MARCH 13 1:40.951 1.305
17 63 Renzo TESTA FIAT PALIO 11 1:41.040 1.394
18 24 Juan I. CANELA FIESTA KINETIC 11 1:41.157 1.511
19 141 Juan Pablo ROTONDO FIESTA KINETIC 13 1:41.244 1.598
20 13 Joel BORGOBELLO VW TREND 11 1:41.277 1.631
21 31 Facundo LEANEZ TOYOTA ETIOS 12 1:41.490 1.844
22 78 Alejandro WEIMANN TOYOTA ETIOS 10 1:41.571 1.925
23 11 Gaston IANSA FIESTA KINETIC 11 1:41.726 2.080
24 35 Diego LEANEZ TOYOTA ETIOS 8 1:42.028 2.382
25 54 Facundo ROTONDO FIESTA KINETIC 12 1:42.367 2.721
26 36 Alejo BORGIANI VW TREND 13 1:42.453 2.807
27 52 Gustavo ACUNA VW TREND 4 2:07.663 28.017

Sin Tiempo Auto Nro. 73

Descargas
Título Archivo Descarga
201-790-1-entre-clase-2.xls
2° ENTRENAMIENTO C2
Puesto Nro Piloto Marca Vtas Tiempo Dif.
1 150 Damian MARKEL TOYOTA ETIOS 12 1:39.195
2 65 Fernando GOMEZ FREDES NISSAN MARCH 10 1:39.404 0.209
3 5 Gaston GRASSO TOYOTA ETIOS 13 1:39.439 0.244
4 7 Maximiliano BESTANI NISSAN MARCH 9 1:39.481 0.286
5 18 Marcos FERNANDEZ NISSAN MARCH 13 1:39.708 0.513
6 25 Sebastian PEREZ CHEVROLET ONIX 11 1:39.776 0.581
7 21 Gabriel SCORDIA FIESTA KINETIC 10 1:39.846 0.651
8 1 Nicolas POSCO FIESTA KINETIC 6 1:39.892 0.697
9 14 Ever FRANETOVICH FIAT PALIO 10 1:39.897 0.702
10 73 Lucas BAGNERA TOYOTA ETIOS 12 1:39.968 0.773
11 47 Ignacio PROCACITTO VW TREND 11 1:39.978 0.783
12 31 Facundo LEANEZ TOYOTA ETIOS 12 1:40.033 0.838
13 13 Joel BORGOBELLO VW TREND 11 1:40.149 0.954
14 6 Miguel CIAURRO TOYOTA ETIOS 8 1:40.162 0.967
15 69 Agustin HERRERA RENAULT CLIO 8 1:40.198 1.003
16 120 Geronimo NUNEZ NISSAN MARCH 11 1:40.328 1.133
17 11 Gaston IANSA FIESTA KINETIC 12 1:40.399 1.204
18 32 Sergio FERNANDEZ NISSAN MARCH 12 1:40.505 1.310
19 24 Juan I. CANELA FIESTA KINETIC 10 1:40.526 1.331
20 39 Alejandro VALDERREY FIAT PALIO 9 1:40.545 1.350
21 141 Juan Pablo ROTONDO FIESTA KINETIC 12 1:40.547 1.352
22 78 Alejandro WEIMANN TOYOTA ETIOS 12 1:40.825 1.630
23 66 Martin ALESSI RENAULT CLIO 10 1:40.841 1.646
24 63 Renzo TESTA FIAT PALIO 11 1:40.856 1.661
25 36 Alejo BORGIANI VW TREND 11 1:40.931 1.736
26 35 Diego LEANEZ TOYOTA ETIOS 11 1:41.393 2.198
27 54 Facundo ROTONDO FIESTA KINETIC 12 1:42.242 3.047
28 52 Gustavo ACUNA VW TREND 11 1:48.492 9.297
Descargas
Título Archivo Descarga
201-371-2-entre-clase-2.xls
GENERAL ENTRENAMIENTO C2
Puesto Nro Piloto Marca Vtas Tiempo Dif.
1 150 Damian MARKEL TOYOTA ETIOS 1:39.195
2 65 Fernando GOMEZ FREDES NISSAN MARCH 1:39.404 0.209
3 5 Gaston GRASSO TOYOTA ETIOS 1:39.439 0.244
4 7 Maximiliano BESTANI NISSAN MARCH 1:39.481 0.286
5 18 Marcos FERNANDEZ NISSAN MARCH 1:39.708 0.513
6 25 Sebastian PEREZ CHEVROLET ONIX 1:39.776 0.581
7 21 Gabriel SCORDIA FIESTA KINETIC 1:39.846 0.651
8 1 Nicolas POSCO FIESTA KINETIC 1:39.892 0.697
9 14 Ever FRANETOVICH FIAT PALIO 1:39.897 0.702
10 73 Lucas BAGNERA TOYOTA ETIOS 1:39.968 0.773
11 47 Ignacio PROCACITTO VW TREND 1:39.978 0.783
12 31 Facundo LEANEZ TOYOTA ETIOS 1:40.033 0.838
13 13 Joel BORGOBELLO VW TREND 1:40.149 0.954
14 6 Miguel CIAURRO TOYOTA ETIOS 1:40.162 0.967
15 69 Agustin HERRERA RENAULT CLIO 1:40.198 1.003
16 120 Geronimo NUNEZ NISSAN MARCH 1:40.328 1.133
17 11 Gaston IANSA FIESTA KINETIC 1:40.399 1.204
18 32 Sergio FERNANDEZ NISSAN MARCH 1:40.505 1.310
19 24 Juan I. CANELA FIESTA KINETIC 1:40.526 1.331
20 39 Alejandro VALDERREY FIAT PALIO 1:40.545 1.350
21 141 Juan Pablo ROTONDO FIESTA KINETIC 1:40.547 1.352
22 66 Martin ALESSI RENAULT CLIO 1:40.713 1.518
23 78 Alejandro WEIMANN TOYOTA ETIOS 1:40.825 1.630
24 63 Renzo TESTA FIAT PALIO 1:40.856 1.661
25 36 Alejo BORGIANI VW TREND 1:40.931 1.736
26 35 Diego LEANEZ TOYOTA ETIOS 1:41.393 2.198
27 54 Facundo ROTONDO FIESTA KINETIC 1:42.242 3.047
28 52 Gustavo ACUNA VW TREND 1:48.492 9.297
Descargas
CALENDARIO AÑO 2019
Nro Fecha Circuito C2 C3
1 24/02 San Luis (La Pedrera)
2 24/03 La Pampa
3 21/04 San Juan
4 12/05 Neuquen
5 02/06 Concordia
6 14/07 San Luis
7 04/08 Obera
8 01/09 Termas de Rio Hondo
9 29/09 Viedma
10 20/10 San Jorge
11 17/11 Rosario
12 08/12 San Nicolas